Year,Month,Day,Hour,Minute,Value (Times are PST for temperature in C)
2015,02,03,10,27,8.40
2015,02,03,10,28,8.50
2015,02,03,10,29,8.50
2015,02,03,10,30,8.50
2015,02,03,10,31,8.50
2015,02,03,10,32,8.50
2015,02,03,10,33,8.50
2015,02,03,10,34,8.50
2015,02,03,10,35,8.50
2015,02,03,10,36,8.50
2015,02,03,10,37,8.50
2015,02,03,10,38,8.50
2015,02,03,10,39,8.50
2015,02,03,10,40,8.50
2015,02,03,10,41,8.50
2015,02,03,10,42,8.60
2015,02,03,10,43,8.60
2015,02,03,10,44,8.60
2015,02,03,10,45,8.60
2015,02,03,10,46,8.60
2015,02,03,10,47,8.60
2015,02,03,10,48,8.70
2015,02,03,10,49,8.70
2015,02,03,10,50,8.70
2015,02,03,10,51,8.70
2015,02,03,10,52,8.70
2015,02,03,10,53,8.70
2015,02,03,10,54,8.70
2015,02,03,10,55,8.70
2015,02,03,10,56,8.70
2015,02,03,10,57,8.70
2015,02,03,10,58,8.70
2015,02,03,10,59,8.70
2015,02,03,11,00,8.70
2015,02,03,11,01,8.70
2015,02,03,11,02,8.70
2015,02,03,11,03,8.70
2015,02,03,11,04,8.70
2015,02,03,11,05,8.70
2015,02,03,11,06,8.70
2015,02,03,11,07,8.70
2015,02,03,11,08,8.70
2015,02,03,11,09,8.70
2015,02,03,11,10,8.70
2015,02,03,11,11,8.70
2015,02,03,11,12,8.70
2015,02,03,11,13,8.70
2015,02,03,11,14,8.70
2015,02,03,11,15,8.60
2015,02,03,11,16,8.60
2015,02,03,11,17,8.60
2015,02,03,11,18,8.60
2015,02,03,11,19,8.60
2015,02,03,11,20,8.60
2015,02,03,11,21,8.60
2015,02,03,11,22,8.60
2015,02,03,11,23,8.60
2015,02,03,11,24,8.70
2015,02,03,11,25,8.70
2015,02,03,11,26,8.70
2015,02,03,11,27,8.70
2015,02,03,11,28,8.70
2015,02,03,11,29,8.80
2015,02,03,11,30,8.80
2015,02,03,11,31,8.90
2015,02,03,11,32,8.90
2015,02,03,11,33,9.00
2015,02,03,11,34,9.00
2015,02,03,11,35,9.10
2015,02,03,11,36,9.10
2015,02,03,11,37,9.10
2015,02,03,11,38,9.10
2015,02,03,11,39,9.10
2015,02,03,11,40,9.20
2015,02,03,11,41,9.20
2015,02,03,11,42,9.20
2015,02,03,11,43,9.20
2015,02,03,11,44,9.20
2015,02,03,11,45,9.30
2015,02,03,11,46,9.30
2015,02,03,11,47,9.20
2015,02,03,11,48,9.30
2015,02,03,11,49,9.30
2015,02,03,11,50,9.30
2015,02,03,11,51,9.40
2015,02,03,11,52,9.40
2015,02,03,11,53,9.50
2015,02,03,11,54,9.50
2015,02,03,11,55,9.60
2015,02,03,11,56,9.70
2015,02,03,11,57,9.70
2015,02,03,11,58,9.70
2015,02,03,11,59,9.70
2015,02,03,12,00,9.70
2015,02,03,12,01,9.70
2015,02,03,12,02,9.70
2015,02,03,12,03,9.70
2015,02,03,12,04,9.70
2015,02,03,12,05,9.70
2015,02,03,12,06,9.70
2015,02,03,12,07,9.70
2015,02,03,12,08,9.70
2015,02,03,12,09,9.70
2015,02,03,12,10,9.70
2015,02,03,12,11,9.70
2015,02,03,12,12,9.70
2015,02,03,12,13,9.70
2015,02,03,12,14,9.80
2015,02,03,12,15,9.80
2015,02,03,12,16,9.90
2015,02,03,12,17,9.90
2015,02,03,12,18,10.00
2015,02,03,12,19,10.10
2015,02,03,12,20,10.20
2015,02,03,12,21,10.20
2015,02,03,12,22,10.10
2015,02,03,12,23,10.20
2015,02,03,12,24,10.20
2015,02,03,12,25,10.20
2015,02,03,12,26,10.20
2015,02,03,12,27,10.20
2015,02,03,12,28,10.30
2015,02,03,12,29,10.40
2015,02,03,12,30,10.40
2015,02,03,12,31,10.40
2015,02,03,12,32,10.40
2015,02,03,12,33,10.40
2015,02,03,12,34,10.40
2015,02,03,12,35,10.40
2015,02,03,12,36,10.40
2015,02,03,12,37,10.40
2015,02,03,12,38,10.40
2015,02,03,12,39,10.30
2015,02,03,12,40,10.30
2015,02,03,12,41,10.40
2015,02,03,12,42,10.40
2015,02,03,12,43,10.40
2015,02,03,12,44,10.40
2015,02,03,12,45,10.40
2015,02,03,12,46,10.40
2015,02,03,12,47,10.40
2015,02,03,12,48,10.30
2015,02,03,12,49,10.30
2015,02,03,12,50,10.30
2015,02,03,12,51,10.30
2015,02,03,12,52,10.40
2015,02,03,12,53,10.40
2015,02,03,12,54,10.40
2015,02,03,12,55,10.40
2015,02,03,12,56,10.50
2015,02,03,12,57,10.60
2015,02,03,12,58,10.60
2015,02,03,12,59,10.60
2015,02,03,13,00,10.60
2015,02,03,13,01,10.50
2015,02,03,13,02,10.40
2015,02,03,13,03,10.40
2015,02,03,13,04,10.50
2015,02,03,13,05,10.60
2015,02,03,13,06,10.60
2015,02,03,13,07,10.60
2015,02,03,13,08,10.60
2015,02,03,13,09,10.60
2015,02,03,13,10,10.60
2015,02,03,13,11,10.60
2015,02,03,13,12,10.60
2015,02,03,13,13,10.60
2015,02,03,13,14,10.70
2015,02,03,13,15,10.70
2015,02,03,13,16,10.70
2015,02,03,13,17,10.70
2015,02,03,13,18,10.70
2015,02,03,13,19,10.80
2015,02,03,13,20,10.80
2015,02,03,13,21,10.80
2015,02,03,13,22,10.80
2015,02,03,13,23,10.80
2015,02,03,13,24,10.80
2015,02,03,13,25,10.80
2015,02,03,13,26,10.80
2015,02,03,13,27,10.80
2015,02,03,13,28,10.80
2015,02,03,13,29,10.80
2015,02,03,13,30,10.80
2015,02,03,13,31,10.80
2015,02,03,13,32,10.80
2015,02,03,13,33,10.90
2015,02,03,13,34,10.80
2015,02,03,13,35,10.80
2015,02,03,13,36,10.90
2015,02,03,13,37,10.90
2015,02,03,13,38,10.80
2015,02,03,13,39,10.80
2015,02,03,13,40,10.80
2015,02,03,13,41,10.80
2015,02,03,13,42,10.80
2015,02,03,13,43,10.80
2015,02,03,13,44,10.70
2015,02,03,13,45,10.70
2015,02,03,13,46,10.60
2015,02,03,13,47,10.60
2015,02,03,13,48,10.50
2015,02,03,13,49,10.40
2015,02,03,13,50,10.40
2015,02,03,13,51,10.40
2015,02,03,13,52,10.40
2015,02,03,13,53,10.40
2015,02,03,13,54,10.30
2015,02,03,13,55,10.30
2015,02,03,13,56,10.30
2015,02,03,13,57,10.30
2015,02,03,13,58,10.30
2015,02,03,13,59,10.30
2015,02,03,14,00,10.30
2015,02,03,14,01,10.30
2015,02,03,14,02,10.30
2015,02,03,14,03,10.30
2015,02,03,14,04,10.30
2015,02,03,14,05,10.30
2015,02,03,14,06,10.30
2015,02,03,14,07,10.30
2015,02,03,14,08,10.30
2015,02,03,14,09,10.20
2015,02,03,14,10,10.20
2015,02,03,14,11,10.20
2015,02,03,14,12,10.20
2015,02,03,14,13,10.20
2015,02,03,14,14,10.20
2015,02,03,14,15,10.10
2015,02,03,14,16,10.10
2015,02,03,14,17,10.10
2015,02,03,14,18,10.10
2015,02,03,14,19,10.10
2015,02,03,14,20,10.10
2015,02,03,14,21,10.10
2015,02,03,14,22,10.10
2015,02,03,14,23,10.10
2015,02,03,14,24,10.10
2015,02,03,14,25,10.10
2015,02,03,14,26,10.10
2015,02,03,14,27,9.90
2015,02,03,14,28,9.90
2015,02,03,14,29,9.90
2015,02,03,14,30,9.90
2015,02,03,14,31,9.90
2015,02,03,14,32,9.90
2015,02,03,14,33,9.90
2015,02,03,14,34,9.80
2015,02,03,14,35,9.80
2015,02,03,14,36,9.80
2015,02,03,14,37,9.70
2015,02,03,14,38,9.70
2015,02,03,14,39,9.70
2015,02,03,14,40,9.70
2015,02,03,14,41,9.70
2015,02,03,14,42,9.70
2015,02,03,14,43,9.70
2015,02,03,14,44,9.70
2015,02,03,14,45,9.70
2015,02,03,14,46,9.70
2015,02,03,14,47,9.70
2015,02,03,14,48,9.70
2015,02,03,14,49,9.60
2015,02,03,14,50,9.60
2015,02,03,14,51,9.60
2015,02,03,14,52,9.60
2015,02,03,14,53,9.50
2015,02,03,14,54,9.50
2015,02,03,14,55,9.50
2015,02,03,14,56,9.50
2015,02,03,14,57,9.50
2015,02,03,14,58,9.50
2015,02,03,14,59,9.50
2015,02,03,15,00,9.40
2015,02,03,15,01,9.40
2015,02,03,15,02,9.40
2015,02,03,15,03,9.40
2015,02,03,15,04,9.40
2015,02,03,15,05,9.30
2015,02,03,15,06,9.30
2015,02,03,15,07,9.30
2015,02,03,15,08,9.30
2015,02,03,15,09,9.20
2015,02,03,15,10,9.20
2015,02,03,15,11,9.20
2015,02,03,15,12,9.20
2015,02,03,15,13,9.20
2015,02,03,15,14,9.20
2015,02,03,15,15,9.20
2015,02,03,15,16,9.20
2015,02,03,15,17,9.20
2015,02,03,15,18,9.20
2015,02,03,15,19,9.20
2015,02,03,15,20,9.20
2015,02,03,15,21,9.20
2015,02,03,15,22,9.20
2015,02,03,15,23,9.20
2015,02,03,15,24,9.20
2015,02,03,15,25,9.20
2015,02,03,15,26,9.20
2015,02,03,15,27,9.20
2015,02,03,15,28,9.20
2015,02,03,15,29,9.20
2015,02,03,15,30,9.20
2015,02,03,15,31,9.20
2015,02,03,15,32,9.20
2015,02,03,15,33,9.20
2015,02,03,15,34,9.20
2015,02,03,15,35,9.20
2015,02,03,15,36,9.20
2015,02,03,15,37,9.20
2015,02,03,15,38,9.20
2015,02,03,15,39,9.20
2015,02,03,15,40,9.20
2015,02,03,15,41,9.20
2015,02,03,15,42,9.20
2015,02,03,15,43,9.20
2015,02,03,15,44,9.20
2015,02,03,15,45,9.20
2015,02,03,15,46,9.20
2015,02,03,15,47,9.20
2015,02,03,15,48,9.20
2015,02,03,15,49,9.20
2015,02,03,15,50,9.20
2015,02,03,15,51,9.20
2015,02,03,15,52,9.20
2015,02,03,15,53,9.20
2015,02,03,15,54,9.20
2015,02,03,15,55,9.20
2015,02,03,15,56,9.20
2015,02,03,15,57,9.20
2015,02,03,15,58,9.20
2015,02,03,15,59,9.20
2015,02,03,16,00,9.20
2015,02,03,16,01,9.20
2015,02,03,16,02,9.20
2015,02,03,16,03,9.20
2015,02,03,16,04,9.20
2015,02,03,16,05,9.20
2015,02,03,16,06,9.20
2015,02,03,16,07,9.20
2015,02,03,16,08,9.20
2015,02,03,16,09,9.20
2015,02,03,16,10,9.20
2015,02,03,16,11,9.20
2015,02,03,16,12,9.20
2015,02,03,16,13,9.20
2015,02,03,16,14,9.20
2015,02,03,16,15,9.20
2015,02,03,16,16,9.20
2015,02,03,16,17,9.20
2015,02,03,16,18,9.20
2015,02,03,16,19,9.20
2015,02,03,16,20,9.20
2015,02,03,16,21,9.20
2015,02,03,16,22,9.20
2015,02,03,16,23,9.20
2015,02,03,16,24,9.20
2015,02,03,16,25,9.20
2015,02,03,16,26,9.20
2015,02,03,16,27,9.20
2015,02,03,16,28,9.20
2015,02,03,16,29,9.20
2015,02,03,16,30,9.20
2015,02,03,16,31,9.20
2015,02,03,16,32,9.20
2015,02,03,16,33,9.20
2015,02,03,16,34,9.20
2015,02,03,16,35,9.20
2015,02,03,16,36,9.20
2015,02,03,16,37,9.20
2015,02,03,16,38,9.20
2015,02,03,16,39,9.20
2015,02,03,16,40,9.20
2015,02,03,16,41,9.20
